{"data":{"norad_id":68194,"epoch":"2026-05-25T01:21:08.100000Z","epoch_age_seconds":63435,"freshness":"FRESH","line1":"1 68194U 26050AD  26145.05634375  .00020221  00000+0  60804-3 0  9999","line2":"2 68194  53.1584 271.4327 0000860  95.9209 264.1892 15.34397652 12381","mean_motion":15.34397652,"eccentricity":8.6e-5,"inclination_deg":53.1584,"raan_deg":271.4327,"arg_perigee_deg":95.9209,"mean_anomaly_deg":264.1892,"bstar":0.00060804,"rev_number":1238,"period_min":93.847901691132,"perigee_km":462.12190610599,"apogee_km":463.29853182765,"semimajor_km":6840.8472189668,"source":"CELESTRAK","updated_at":"2026-05-25T13:38:21.876416Z"}}